Estación de Pirque
Ultimos registro cada 15 minutos 82
| N° | Estación | Fecha / Hora | Temperatura | Humedad | Lluvia | Velocidad | Dirección | Radiación | Presion |
| 82 | Pirque | 04-05-2026 20:15 | 9,7 | 74,4 | 0 | 0 | 246 | 0,6 | 938,1 |
| 81 | Pirque | 04-05-2026 20:00 | 9,8 | 74,5 | 0 | 0 | 246 | 0,6 | 938 |
| 80 | Pirque | 04-05-2026 19:45 | 9,4 | 74,7 | 0 | 0 | 246 | 0,6 | 938 |
| 79 | Pirque | 04-05-2026 19:30 | 9,7 | 72,3 | 0 | 0 | 246 | 0,6 | 938 |
| 78 | Pirque | 04-05-2026 19:15 | 11,1 | 66,9 | 0 | 0 | 246 | 0,6 | 938 |
| 77 | Pirque | 04-05-2026 19:00 | 11 | 67 | 0 | 0 | 246 | 0,6 | 937,9 |
| 76 | Pirque | 04-05-2026 18:45 | 12,2 | 63,3 | 0 | 0 | 246 | 0,6 | 938,3 |
| 75 | Pirque | 04-05-2026 18:30 | 12,7 | 61,7 | 0 | 0 | 246 | 0,6 | 937,9 |
| 74 | Pirque | 04-05-2026 18:15 | 12,8 | 55,9 | 0 | 0 | 246 | 0,6 | 937,5 |
| 73 | Pirque | 04-05-2026 18:00 | 14,6 | 50,3 | 0 | 0 | 246 | 5,6 | 937,3 |
| 72 | Pirque | 04-05-2026 17:45 | 19 | 39,7 | 0 | 0 | 246 | 13,1 | 937,3 |
| 71 | Pirque | 04-05-2026 17:30 | 21,6 | 33,1 | 0 | 0 | 246 | 69,4 | 937,2 |
| 70 | Pirque | 04-05-2026 17:15 | 20,8 | 33 | 0 | 0 | 246 | 120,6 | 937,4 |
| 69 | Pirque | 04-05-2026 17:00 | 21,2 | 31,6 | 0 | 0 | 250 | 165,6 | 937,4 |
| 68 | Pirque | 04-05-2026 16:45 | 22,4 | 27,4 | 0 | 0 | 250 | 209,4 | 937,2 |
| 67 | Pirque | 04-05-2026 16:30 | 22,9 | 29,7 | 0 | 0 | 253 | 253,1 | 937,2 |
| 66 | Pirque | 04-05-2026 16:15 | 23,7 | 29,5 | 0 | 0 | 263 | 316,9 | 937,4 |
| 65 | Pirque | 04-05-2026 16:00 | 24 | 30,5 | 0 | 0 | 275 | 411,9 | 937,2 |
| 64 | Pirque | 04-05-2026 15:45 | 24,5 | 30,3 | 0 | 0 | 282 | 523,1 | 937,3 |
| 63 | Pirque | 04-05-2026 15:30 | 22,2 | 33,3 | 0 | 0 | 284 | 331,9 | 937 |
| 62 | Pirque | 04-05-2026 15:15 | 21,6 | 31,6 | 0 | 0 | 284 | 263,1 | 937,4 |
| 61 | Pirque | 04-05-2026 15:00 | 21,7 | 33,8 | 0 | 0 | 284 | 285,6 | 937,3 |
| 60 | Pirque | 04-05-2026 14:45 | 21,3 | 35,6 | 0 | 0 | 284 | 371,9 | 938,1 |
| 59 | Pirque | 04-05-2026 14:30 | 20,7 | 36,8 | 0 | 0 | 284 | 269,4 | 938,1 |
| 58 | Pirque | 04-05-2026 14:15 | 20,4 | 37,1 | 0 | 0 | 284 | 179,4 | 938,4 |
| 57 | Pirque | 04-05-2026 14:00 | 20,7 | 35,6 | 0 | 0 | 284 | 264,4 | 938,5 |
| 56 | Pirque | 04-05-2026 13:45 | 20,7 | 35,8 | 0 | 0 | 284 | 264,4 | 938,6 |
| 55 | Pirque | 04-05-2026 13:30 | 20,8 | 37,4 | 0 | 0 | 285 | 259,4 | 938,7 |
| 54 | Pirque | 04-05-2026 13:15 | 20,5 | 38,1 | 0 | 0 | 285 | 241,9 | 938,9 |
| 53 | Pirque | 04-05-2026 13:00 | 20,2 | 40,7 | 0 | 0 | 284 | 208,1 | 938,9 |
| 52 | Pirque | 04-05-2026 12:45 | 20,3 | 40,2 | 0 | 0 | 284 | 235,6 | 938,9 |
| 51 | Pirque | 04-05-2026 12:30 | 19,8 | 42,6 | 0 | 0 | 284 | 229,4 | 938,9 |
| 50 | Pirque | 04-05-2026 12:15 | 19,2 | 41,5 | 0 | 0 | 284 | 223,1 | 939,1 |
| 49 | Pirque | 04-05-2026 12:00 | 19,1 | 42,8 | 0 | 0 | 284 | 186,9 | 939,3 |
| 48 | Pirque | 04-05-2026 11:45 | 19,5 | 42,4 | 0 | 0 | 284 | 226,9 | 939,2 |
| 47 | Pirque | 04-05-2026 11:30 | 19,2 | 43,6 | 0 | 0 | 284 | 268,1 | 939,4 |
| 46 | Pirque | 04-05-2026 11:15 | 19,1 | 48,1 | 0 | 0 | 284 | 310,6 | 939,3 |
| 45 | Pirque | 04-05-2026 11:00 | 18,4 | 47,8 | 0 | 0 | 284 | 253,1 | 939,3 |
| 44 | Pirque | 04-05-2026 10:45 | 17,6 | 55,4 | 0 | 0 | 284 | 216,9 | 939 |
| 43 | Pirque | 04-05-2026 10:30 | 16,7 | 56,5 | 0 | 0 | 285 | 216,9 | 939,3 |
| 42 | Pirque | 04-05-2026 10:15 | 16,1 | 61,8 | 0 | 0 | 285 | 221,9 | 939,3 |
| 41 | Pirque | 04-05-2026 10:00 | 14,6 | 66,3 | 0 | 0 | 285 | 185,6 | 939,5 |
| 40 | Pirque | 04-05-2026 09:45 | 13,9 | 72,7 | 0 | 0 | 285 | 149,4 | 939,4 |
| 39 | Pirque | 04-05-2026 09:30 | 12,8 | 77 | 0 | 0 | 285 | 108,1 | 939,7 |
| 38 | Pirque | 04-05-2026 09:15 | 11,8 | 80,3 | 0 | 0 | 285 | 81,9 | 939,6 |
| 37 | Pirque | 04-05-2026 09:00 | 11,3 | 82,6 | 0 | 0 | 285 | 60,6 | 939,3 |
| 36 | Pirque | 04-05-2026 08:45 | 10,7 | 85,7 | 0 | 0 | 285 | 49,4 | 939,4 |
| 35 | Pirque | 04-05-2026 08:30 | 10,2 | 86 | 0 | 0 | 285 | 36,9 | 939,2 |
| 34 | Pirque | 04-05-2026 08:15 | 9,9 | 85,8 | 0 | 0 | 285 | 25,6 | 939,3 |
| 33 | Pirque | 04-05-2026 08:00 | 9,8 | 86,8 | 0 | 0 | 285 | 13,1 | 939,3 |
| 32 | Pirque | 04-05-2026 07:45 | 9 | 88,4 | 0 | 0 | 285 | 8,1 | 939,2 |
| 31 | Pirque | 04-05-2026 07:30 | 8,9 | 87,4 | 0 | 0 | 285 | 0,6 | 939,3 |
| 30 | Pirque | 04-05-2026 07:15 | 9,1 | 86,1 | 0 | 0 | 285 | 0,6 | 939,1 |
| 29 | Pirque | 04-05-2026 07:00 | 9,4 | 85,6 | 0 | 0 | 285 | 0,6 | 939 |
| 28 | Pirque | 04-05-2026 06:45 | 8,9 | 87,8 | 0 | 0 | 285 | 0,6 | 939,1 |
| 27 | Pirque | 04-05-2026 06:30 | 8,8 | 87,5 | 0 | 0 | 285 | 0,6 | 939,1 |
| 26 | Pirque | 04-05-2026 06:15 | 8,8 | 87,2 | 0 | 0 | 285 | 0,6 | 938,9 |
| 25 | Pirque | 04-05-2026 06:00 | 9,1 | 86,3 | 0 | 0 | 285 | 0,6 | 938,9 |
| 24 | Pirque | 04-05-2026 05:45 | 9,2 | 86,7 | 0 | 0 | 285 | 0,6 | 939 |
| 23 | Pirque | 04-05-2026 05:30 | 9,1 | 86,4 | 0 | 0 | 285 | 0,6 | 938,9 |
| 22 | Pirque | 04-05-2026 05:15 | 9 | 85,6 | 0 | 0 | 285 | 0,6 | 939,1 |
| 21 | Pirque | 04-05-2026 05:00 | 9,6 | 84,7 | 0 | 0 | 285 | 0,6 | 938,8 |
| 20 | Pirque | 04-05-2026 04:45 | 8,8 | 86,9 | 0 | 0 | 285 | 0,6 | 938,8 |
| 19 | Pirque | 04-05-2026 04:30 | 9,1 | 86,2 | 0 | 0 | 285 | 0,6 | 938,6 |
| 18 | Pirque | 04-05-2026 04:15 | 9,3 | 84,7 | 0 | 0 | 285 | 0,6 | 938,7 |
| 17 | Pirque | 04-05-2026 04:00 | 10,1 | 82,5 | 0 | 0 | 285 | 0,6 | 939,2 |
| 16 | Pirque | 04-05-2026 03:45 | 9,9 | 83,5 | 0 | 0 | 285 | 0,6 | 939 |
| 15 | Pirque | 04-05-2026 03:30 | 9,9 | 83,5 | 0 | 0 | 285 | 0,6 | 939,1 |
| 14 | Pirque | 04-05-2026 03:15 | 9,5 | 85,3 | 0 | 0 | 285 | 0,6 | 939,7 |
| 13 | Pirque | 04-05-2026 03:00 | 9,7 | 85,4 | 0 | 0 | 285 | 0,6 | 939,7 |
| 12 | Pirque | 04-05-2026 02:45 | 9,4 | 85,9 | 0 | 0 | 285 | 0,6 | 939,8 |
| 11 | Pirque | 04-05-2026 02:30 | 9,1 | 86,2 | 0 | 0 | 285 | 0,6 | 939,9 |
| 10 | Pirque | 04-05-2026 02:15 | 9,1 | 84,7 | 0 | 0 | 285 | 0,6 | 939,8 |
| 9 | Pirque | 04-05-2026 02:00 | 9,5 | 82,9 | 0 | 0 | 285 | 0,6 | 940,2 |
| 8 | Pirque | 04-05-2026 01:45 | 10,1 | 81,6 | 0 | 0 | 285 | 0,6 | 940,2 |
| 7 | Pirque | 04-05-2026 01:30 | 10,8 | 79,1 | 0 | 0 | 285 | 0,6 | 940,5 |
| 6 | Pirque | 04-05-2026 01:15 | 11 | 79,1 | 0 | 0 | 285 | 0,6 | 940,7 |
| 5 | Pirque | 04-05-2026 01:00 | 11 | 79,3 | 0 | 0 | 285 | 0,6 | 940,7 |
| 4 | Pirque | 04-05-2026 00:45 | 10,9 | 79,4 | 0 | 0 | 285 | 0,6 | 940,5 |
| 3 | Pirque | 04-05-2026 00:30 | 10,5 | 80 | 0 | 0 | 285 | 0,6 | 940,5 |
| 2 | Pirque | 04-05-2026 00:15 | 10,9 | 80,1 | 0 | 0 | 285 | 0,6 | 940,6 |
| 1 | Pirque | 04-05-2026 00:00 | 10,3 | 83,2 | 0 | 0 | 285 | 0,6 | 940,9 |